Location: Zihuatanejo
(17.6330°N, 101.5500°W)
Time: 13:22:06
(UTC-05:00)

Daily predictions for brighter satellites

Satellite Brightness Start Highest point End
(mag) Time Altitude Azimuth Time Altitude Azimuth Time Altitude Azimuth
Cosmos 1371 Rocket 4.1 20:32:23 10° S 20:37:43 84° ESE 20:43:02 10° NNE
Cosmos 1943 3.2 20:35:00 10° N 20:40:34 66° ENE 20:46:07 10° SSE
Cosmos 1733 Rocket 4.3 20:38:15 10° SE 20:41:40 22° E 20:45:03 10° NE
ARIANE 5 R/B 4.4 20:29:51 10° WSW 20:42:06 27° SSW 20:45:35 10° SE
Abrixas 3.8 20:42:47 10° S 20:45:11 21° SE 20:47:35 10° ENE
HJ-1C 3.5 20:42:25 10° SSE 20:45:39 52° ENE 20:48:52 10° N
Cosmos 389 Rocket 2.4 20:44:31 10° N 20:47:59 75° E 20:51:30 10° S
NOAA 12 4.2 20:46:21 10° SSE 20:51:40 87° WSW 20:56:58 10° NNW
Spot 2 Rocket 3.5 20:53:28 10° SSE 20:58:34 87° ENE 21:03:41 10° NNW
CZ-4B DEB 3.4 20:56:08 10° SSE 20:59:11 37° ENE 21:02:14 10° N
Resurs 1-3 3.6 20:58:37 10° SSE 21:02:58 69° ENE 21:07:19 10° N
USA 215 3.3 20:58:33 10° SE 21:05:03 69° NE 21:11:33 10° NNW
Abrixas rocket 3.8 21:02:30 10° NNW 21:05:19 24° NE 21:07:16 15° E
Helios 1A 3.5 21:02:25 10° S 21:06:32 62° WSW 21:10:39 10° NNW
Meteor 2-3 Rocket 4.2 21:02:31 10° SSW 21:08:07 66° W 21:13:40 10° N
Cosmos 2184 Rocket 4.0 21:02:59 10° S 21:08:59 59° E 21:15:01 10° NNE
SEDSat Delta rocket 4.3 21:06:07 10° W 21:10:38 41° NNW 21:14:41 10° NE
Cosmos 2221 Rocket 4.0 21:06:20 10° NNW 21:10:42 66° W 21:15:03 10° S
Aureole 3 Rocket 4.5 21:07:07 10° NNW 21:11:11 36° W 21:14:24 10° SSW
METEOR-M 4.2 21:08:50 10° S 21:14:09 80° WSW 21:19:29 10° NNW
CZ-3C R/B 4.2 18:52:44 10° WSW 21:15:11 79° SSE 21:23:56 12° E
Cosmos 1892 2.9 21:16:05 10° S 21:19:52 71° W 21:23:41 10° N
ALOS 2.4 21:18:29 13° SSE 21:22:28 54° ENE 21:27:01 10° N
ERS-1 Rocket 4.4 21:22:48 18° E 21:23:45 18° ENE 21:27:09 10° NNE
Okean 1-7 3.4 21:21:55 10° NNW 21:26:12 65° W 21:30:30 10° S
H-2A R/B 2.6 21:31:42 30° SSE 21:33:21 60° ENE 21:37:00 10° N
GPS 2-14 Rocket1 3.2 21:32:20 10° W 21:35:56 41° SSW 21:36:55 34° SSE
USA 186 1.5 21:36:59 59° ESE 21:37:18 65° E 21:40:25 10° N
Cosmos 1452 Rocket 3.5 21:32:42 10° SSW 21:37:57 88° WNW 21:43:13 10° NNE
Cosmos 2074 Rocket 4.4 21:32:33 10° SSW 21:38:48 67° W 21:45:02 10° N
ASTRO E2 3.9 21:38:21 10° SSW 21:40:50 26° S 21:40:50 26° S
Cosmos 1782 3.4 21:42:45 10° NNE 21:46:08 38° ENE 21:46:08 38° ENE
Resurs 01 Rocket 4.1 21:45:29 10° SW 21:48:39 19° W 21:51:49 10° NW
Cosmos 1610 Rocket 4.4 21:42:40 10° S 21:48:48 86° W 21:55:00 10° N
Cosmos 1674 Rocket 3.8 21:45:54 10° N 21:50:08 46° E 21:50:12 46° E
FUSE 4.4 21:45:34 10° SW 21:50:34 39° SSE 21:50:53 39° SSE
Cosmos 1408 3.9 21:55:09 28° NNE 21:55:09 28° NNE 21:57:07 10° NNE
Cosmos 1190 Rocket 4.3 21:49:11 10° N 21:54:08 44° ENE 21:54:37 43° E
Sich 1 Rocket 3.8 21:50:06 10° S 21:54:39 73° W 21:59:13 10° N
ATLAS 5 CENTAUR R/B 2.6 21:50:41 10° NNW 21:56:57 61° ENE 21:59:00 42° ESE
Atlas Centaur 2 3.5 21:55:08 10° NNW 21:57:00 13° N 21:57:58 12° NNE
Cosmos 1825 3.0 22:05:45 43° NNE 22:05:45 43° NNE 22:08:23 10° N
Nadezhda 3 Rocket 4.2 22:03:36 10° N 22:09:41 47° E 22:09:52 47° E
Meteor 2-6 Rocket 4.1 22:04:11 10° N 22:10:02 78° E 22:11:19 55° SSE
CENTAUR R/B 3.1 22:01:58 10° NNW 22:10:13 85° WSW 22:14:07 36° SSE
Cosmos 2278 Rocket 3.2 22:05:52 10° SW 22:11:15 45° WNW 22:16:39 10° N
COSMOS 2406 3.3 22:13:36 10° NNW 22:19:17 71° WSW 22:20:32 53° SSW
Stardust Del rocket 4.4 22:16:43 10° W 22:18:31 37° W 22:18:31 37° W
Cosmos 2341 Rocket 4.0 22:19:54 32° S 22:23:02 82° W 22:29:20 10° N
UNK 4.5 22:18:41 10° NNE 22:23:44 57° ENE 22:23:44 57° ENE
SL-8 Rocket 4.3 22:34:24 54° NE 22:34:24 54° NE 22:39:24 10° NNE
H-2A R/B 4.0 22:49:42 25° NNW 22:49:42 25° NNW 22:51:33 10° NNW
Envisat 3.9 22:49:14 45° NNW 22:49:14 45° NNW 22:52:48 10° NNW
